星链-36746(STARLINK-36746)

导读

STARLINK-36746是美国SpaceX公司星链(Starlink)卫星互联网星座的一员,于2026年2月11日发射。星链项目旨在构建全球覆盖的低轨卫星互联网系统,为偏远地区、海上、航空等场景提供高速宽带服务。该卫星被部署到近地轨道,参与星座组网,增强星座的覆盖能力与服务容量,延续SpaceX持续扩展星链规模的进程。

Basic Information
目录编号:
67733
目录名称:
STARLINK-36746
国际标识:
2026-026N
轨道中心:
EARTH
卫星名称:
星链-36746
卫星全名:
星链-36746(STARLINK-36746)
卫星状态:
在轨 (已飞行205 天)
发射日期:
2026-02-11 UTC
国别 :
美国 (US)
星等 :
--
Orbit Information
数据来源 国际轨道数据
星历时间: 2026-09-03T10:17:49+0800
1天前
查看轨道信息
半长轴: 6843.658km
偏心率: 0.0001287
轨道倾角: 97.284°
近地点辐角 91.453°
升交点赤经 298.174°
平近点角 268.687°
近地点: 464.64km
远地点: 466.402km
周期: 93.906分钟
每日圈数: 15.334526
Detailed Information
固有亮度:
5
最大亮度:
2.5
卫星平台:
Starlink V1.0
覆盖范围:
全球
运营商:
太空探索技术公司
运营商所在国:
美国
制造商(研发单位):
太空探索技术公司
制造商所在国:
美国
使用方式:
暂无
Satellite Introduction
Starlink 计划是 SpaceX 推出的全球卫星互联网项目,通过发射低轨道卫星,为全球尤其是偏远地区提供高速、低延迟的互联网服务。自 2019 年起,Starlink 已部署数千颗卫星,旨在缩小全球数字鸿沟,推动互联网普及。该项目还为军事、航空等行业提供通信支持,带来广泛经济效益。
2D Orbit Map
3D Orbit Map
Orbit Altitude Analysis Chart
Orbit Inclination Analysis Chart
Orbit Comprehensive Analysis Chart
View Comprehensive Chart
Conjunction Data List
Event ID Objects TCA Miss Dist (km) Collision Risk Probability Collision Risk Index (CRI) Action
CDM_260831-021704-912306-773321
2026-08-31T
02:17:16+0000
1.090 km
极远距离
2.047203E-5 中风险 0.61
CDM_260828-074305-083406-773321
2026-08-28T
07:43:57+0000
2.243 km
极远距离
2.174103E-6 低风险 0.42
CDM_260904-193404-813806-773321
2026-09-04T
19:34:03+0000
2.621 km
极远距离
1.486047E-6 低风险 0.38
CDM_260905-051604-940906-773321
2026-09-05T
05:16:04+0000
2.958 km
极远距离
1.356879E-6 低风险 0.38